Погода в Каунасе

Поиск расширенной информации на нашем сайте:

Полезная информация:

Новости сайта



02.01.2020
Опубликован Долгосрочный прогноз погоды по городам России и ближнего зарубежья на январь 2020 года.
Карты: Прогноз на январь и февраль 2020 года, Сравнение прогнозируемой аномалии приземной температуры воздуха на январь 2020 года по разным моделям.




Погода в Каунасе - сегодня

Время (UTC), дата Ветер
(°,м/с) 
Видим.   Явления Облачность Т
(°С)
Тd
(°С)
f(%) Тe
(°С)
Pmin
(гПа)
dP
(гПа)
Po
(мм)
O2
(г/м3)
Тmin Tmax R s Состояние
почвы
12 19.10.20 260 (З) 6-11{11}  20000 м    8/3 600 м средняя, верхняя 
[Cu med, cong|Ac trans|Ci sp]
+8.7 +3.1 68 +7  1015.4  0.6  755  294           
15 19.10.20 260 (З) 5-7{11}  20000 м    9/3 1000 м средняя, верхняя 
[Cu Sc|Ac trans|Ci fib]
+6.9 +2.8 75 +5  1016.2  0.7  755  296           
18 19.10.20 260 (З) 4-6{07}  20000 м    1/0 средняя 
[Ac trans]
+4.2 +2.3 87 +2  1017.2  0.9  756  300    +9.1       
21 19.10.20 250 (З) 3-5{06}  20000 м    3/3 1500 м 
[Sc]
+3.7 +2.4 91 +2  1018.3  1.1  757  300           
00 20.10.20 260 (З) 3-4{06}  20000 м    3/3 1500 м средняя 
[Sc|Ac trans]
+2.9 +2.3 96 +2  1019.1  0.7  757  301           
03 20.10.20 260 (З) 3-5{07}  20000 м    5/0 средняя, верхняя 
[Ac trans|Ci fib]
+2.9 +2.1 94 +2  1020.2  1.1  758  302           
06 20.10.20 260 (З) 2-4{06}  5000 м  дымка  10/10 60 м 
[St]
+3 +2.6 97 +2  1022.2  759  302  +1.3        влажная 
09 20.10.20 260 (З) 2-3{05}  20000 м    10/0 верхняя 
[Cs]
+6.2 +4.6 89 +6  1023.8  1.7  761  299           
12 20.10.20 210 (ЮЗ) 2-3{04}  20000 м    10/1 1500 м верхняя 
[Sc|Cs]
+8.9 +4.2 72 +9  1023.5  -0.2  761  296           
15 20.10.20 160 (Ю) 3-3{04}  20000 м    10/0 средняя 
[Ac As]
+7.5 +5.2 85 +7  1022.3  -1.2  760  297           
18 20.10.20 170 (Ю) 4-5{05}  19000 м    10/0 средняя 
[Ac As]
+6.4 +5.2 92 +5  1021.4  -1  759  298    +9.1       
21 20.10.20 150 (ЮВ) 4-5{06}  6000 м  дымка  10/10 1500 м 
[Sc]
+6.4 +5 91 +5  1019.2  -2.1  757  297           
00 21.10.20 180 (Ю) 6-8{08}  20000 м    10/0 средняя 
[Ac As]
+7.1 +4.6 84 +5  1016.3  -2.9  755  296           
03 21.10.20 180 (Ю) 5-7{09}  20000 м    10/0 средняя 
[Ac As]
+6.8 +4.7 86 +5  1013.7  -2.6  753  295           
06 21.10.20 190 (Ю) 4-5{08}  18000 м  {дождь}  10/10 2000 м 
[Ac As]
+7.1 +5.5 90 +6  1012.8  -0.9  752  295  +6    0.0    влажная 
09 21.10.20 230 (ЮЗ) 5-7{07}  16000 м    10/4 400 м средняя, верхняя 
[Sc|Ac trans|Cs]
+9.1 +6.7 85 +8  1013.3  0.6  753  292           
12 21.10.20 210 (ЮЗ) 3-4{07}  14000 м    10/10 400 м 
[Sc]
+9.9 +7.4 84 +9  1013  -0.3  753  291           
15 21.10.20 190 (Ю) 4-6{06}  10 км    10/10 300 м 
[Sc]
+9.3 +7.4 88 +8  1013.3  0.3  753  292           
18 21.10.20 180 (Ю) 4-6{06}  4900 м  слаб. дождь  10/10 240 м 
[Frnb|Ns]
+9 +8 93 +8  1012.5  -0.8  752  292    +10.1  0.6     
21 21.10.20 210 (ЮЗ) 5-7{07}  8000 м  слаб. дождь  10/10 150 м 
[Frnb|Ns]
+9.6 +8.7 94 +8  1011.6  -0.9  752  291           
00 22.10.20 190 (Ю) 4-5{07}  7000 м  слаб. дождь  10/10 1500 м 
[Ns]
+9.2 +8.2 93 +8  1010.1  -1.5  751  291         
03 22.10.20 190 (Ю) 5-7{08}  9000 м  дымка{дождь}  ясно 
+8.8 +7.6 92 +7  1007.7  -2.4  749  291           
06 22.10.20 200 (Ю) 5-8{08}  10 км  {дождь}  4/3 2000 м средняя, верхняя 
[Ac trans|Ci]
+8.7 +7.2 90 +7  1007.2  -0.5  748  291  +8.4      влажная 
09 22.10.20 230 (ЮЗ) 5-9{10}  19000 м    3/3 1350 м 
[Sc]
+13.8 +10.1 78 +14  1007.2  0.2  749  285           
12 22.10.20 240 (ЮЗ) 7-13{14}  20000 м    10/10 1170 м 
[Sc]
+15.1 +10.4 73 +16  1007.5  0.3  749  284           
Время (UTC), дата Ветер
(°,м/с) 
Видим.   Явления Облачность Т
(°С)
Тd
(°С)
f(%) Тe
(°С)
Pmin
(гПа)
dP
(гПа)
Po
(мм)
O2
(г/м3)
Тmin Tmax R s Состояние
почвы

Для получения пояснительной информации подведите курсор к названию столбца.

ПОГОДА в Каунасе - архив

Всё, что Вы хотите узнать о погоде в Каунасе - удобно и подробно!

Выберите нужную дату (начиная с 1 января 2019* года) и нажмите кнопку "Найти".
Будут отображены архивные сводки погоды по пункту Каунас, начиная с указанной даты.


Отображать данные в формате CSV (для использования в таблицах Excel)


Внимание! Наш архив погоды предназначен исключительно для личного некоммерческого использования в познавательных целях. Если Вам необходимы официальные справки о состоянии погоды (для производственных, юридических, коммерческих и т.п. целей), обращайтесь в органы Росгидромета.

*Примечание: данная дата относится к архиву по метеостанциям СССР (Россия, СНГ, Балтия).
Архив по метеостанциям Зарубежной Европы и Азии (кроме Китая) хранится 10 дней, по другим регионам земного шара (Китай, Африка, Америка, Австралия, Океания) - 1 день.

Каунас - район местоположения метеостанции


Название, широта, долгота, высота метеостанции:
Каунас 54.9°ш. 23.8°д. 77 м над ур. моря [Литва]

Дополнительная информация

В oтличие oт бoльшинства пoгoдных сайтoв мы публикуем пoдрoбную метеoинфoрмацию в детальнoм прoфессиoнальнoм фoрмате.

Характеристики температуры и влажнoсти вoздуха измеряются на высoте 2 м в тени вдали oт зданий и деревьев.
Скoрoсть ветра измеряется на высoте 10 м (на урoвне рoста челoвека скoрoсть ветра ниже в 1.5-2 раза). Если метеoстанция нахoдится в гoрoде или в лесу, тo скoрoсть ветра занижена на 2-4 м/с пo сравнению с oткрытым местoм. Скoрoсть ветра над акватoриями крупных рек и oзёр, а также на вершинах хoлмoв на 2-5 м/с выше, чем в oбычных услoвиях.
Атмoсфернoе давление в разных тoчках местнoсти мoжет значительнo oтличаться oт давления на метеoстанции, в зависимoсти oт услoвий рельефа (при пoдъёме на 10 м давление пoнижается примернo на 1 мм рт.ст.).